レモン彗星

P/2011 FR143 ( Lemmon )

English version
Home page
Updated on February 10, 2013

---------------------------------------------------------------------

・ プロフィール

発見日 2011年3月29日
発見光度 19.4等
発見者 R. E. Hill (Mount Lemmon)

・ 写真集

・ 軌道要素

Epoch 2011 Mar. 20.0 TT = JDT 2455640.5
T 2011 Mar. 10.72725 TT                                 MPC
q   3.7355399            (2000.0)            P               Q
n   0.05522922     Peri.  349.93865     -0.99856310     +0.00947222
a   6.8289947      Node   191.02267     -0.00232721     -0.99099087
e   0.4529883      Incl.   16.01362     -0.05353804     -0.13359404
P  17.8
From 58 observations 2011 Mar. 5-2012 June 10, mean residual 0".4.

・ 光度変化

        m1 = 11.0 + 5 logΔ + 10.0 log r

---------------------------------------------------------------------

軌道要素はM.P.E.C. 2012-L43に掲載されたものです。
光度グラフはComet for Windowsで作成したものです。

---------------------------------------------------------------------

Copyright(C) Seiichi Yoshida (comet@aerith.net). All rights reserved.